TimeEDT,TemperatureF,Dew PointF,Humidity,Sea Level PressureIn,VisibilityMPH,Wind Direction,Wind SpeedMPH,Gust SpeedMPH,PrecipitationIn,Events,Conditions,WindDirDegrees,DateUTC
12:15 AM,46.4,35.6,66,30.06,10.0,Calm,Calm,-,N/A,,Clear,0,2013-04-14 04:15:00
12:35 AM,44.6,35.6,71,30.06,10.0,Calm,Calm,-,N/A,,Clear,0,2013-04-14 04:35:00
12:55 AM,41.0,37.4,87,30.06,10.0,WNW,3.5,-,N/A,,Clear,290,2013-04-14 04:55:00
1:15 AM,41.0,37.4,87,30.06,10.0,Calm,Calm,-,N/A,,Clear,0,2013-04-14 05:15:00
1:35 AM,41.0,37.4,87,30.06,10.0,Calm,Calm,-,N/A,,Clear,0,2013-04-14 05:35:00
1:55 AM,41.0,37.4,87,30.05,10.0,SSW,5.8,-,N/A,,Clear,200,2013-04-14 05:55:00
2:15 AM,37.4,35.6,93,30.06,10.0,SW,4.6,-,N/A,,Clear,230,2013-04-14 06:15:00
2:35 AM,39.2,35.6,87,30.05,10.0,SW,4.6,-,N/A,,Clear,220,2013-04-14 06:35:00
2:55 AM,41.0,35.6,81,30.05,10.0,SSW,4.6,-,N/A,,Clear,210,2013-04-14 06:55:00
3:15 AM,37.4,35.6,93,30.05,10.0,SW,4.6,-,N/A,,Clear,230,2013-04-14 07:15:00
3:35 AM,37.4,35.6,93,30.06,10.0,SW,4.6,-,N/A,,Clear,220,2013-04-14 07:35:00
3:55 AM,41.0,35.6,81,30.06,10.0,Calm,Calm,-,N/A,,Clear,0,2013-04-14 07:55:00
4:15 AM,37.4,35.6,93,30.06,10.0,SSW,3.5,-,N/A,,Clear,200,2013-04-14 08:15:00
4:35 AM,37.4,35.6,93,30.06,10.0,SSW,4.6,-,N/A,,Clear,200,2013-04-14 08:35:00
4:55 AM,37.4,35.6,93,30.06,10.0,SSW,4.6,-,N/A,,Clear,200,2013-04-14 08:55:00
5:15 AM,41.0,35.6,81,30.06,10.0,Calm,Calm,-,N/A,,Clear,0,2013-04-14 09:15:00
5:35 AM,39.2,35.6,87,30.06,10.0,East,3.5,-,N/A,,Clear,100,2013-04-14 09:35:00
5:55 AM,37.4,35.6,93,30.05,10.0,SE,4.6,-,N/A,,Clear,130,2013-04-14 09:55:00
6:15 AM,41.0,35.6,81,30.05,10.0,ESE,5.8,-,N/A,,Clear,120,2013-04-14 10:15:00
6:35 AM,41.0,35.6,81,30.04,10.0,ESE,5.8,-,N/A,,Clear,120,2013-04-14 10:35:00
6:55 AM,42.8,35.6,76,30.05,10.0,SE,6.9,-,N/A,,Clear,130,2013-04-14 10:55:00
7:15 AM,42.8,35.6,76,30.05,10.0,East,6.9,-,N/A,,Clear,100,2013-04-14 11:15:00
7:35 AM,44.6,35.6,71,30.05,10.0,ESE,5.8,-,N/A,,Clear,110,2013-04-14 11:35:00
7:55 AM,44.6,35.6,71,30.06,10.0,ENE,4.6,-,N/A,,Clear,70,2013-04-14 11:55:00
8:15 AM,42.8,37.4,81,30.08,10.0,East,8.1,-,N/A,,Clear,80,2013-04-14 12:15:00
8:35 AM,44.6,37.4,76,30.08,10.0,ESE,5.8,-,N/A,,Clear,110,2013-04-14 12:35:00
8:55 AM,46.4,37.4,71,30.08,10.0,ESE,6.9,-,N/A,,Clear,120,2013-04-14 12:55:00
9:15 AM,46.4,37.4,71,30.07,10.0,SE,8.1,-,N/A,,Clear,140,2013-04-14 13:15:00
9:35 AM,50.0,37.4,62,30.07,10.0,ESE,8.1,-,N/A,,Clear,120,2013-04-14 13:35:00
9:55 AM,51.8,37.4,58,30.07,10.0,SE,6.9,-,N/A,,Clear,130,2013-04-14 13:55:00
10:15 AM,53.6,39.2,58,30.06,10.0,SE,9.2,-,N/A,,Clear,130,2013-04-14 14:15:00
10:35 AM,55.4,39.2,54,30.05,10.0,SE,6.9,-,N/A,,Clear,130,2013-04-14 14:35:00
10:55 AM,57.2,41.0,55,30.04,10.0,ESE,8.1,-,N/A,,Clear,110,2013-04-14 14:55:00
11:15 AM,57.2,41.0,55,30.05,10.0,ESE,5.8,-,N/A,,Clear,120,2013-04-14 15:15:00
11:35 AM,59.0,41.0,51,30.04,10.0,ESE,6.9,-,N/A,,Clear,120,2013-04-14 15:35:00
11:55 AM,60.8,41.0,48,30.03,10.0,SE,9.2,-,N/A,,Clear,140,2013-04-14 15:55:00
12:15 PM,62.6,41.0,45,30.03,10.0,SE,8.1,-,N/A,,Clear,130,2013-04-14 16:15:00
12:35 PM,62.6,39.2,42,30.02,10.0,ESE,8.1,-,N/A,,Clear,110,2013-04-14 16:35:00
12:55 PM,64.4,39.2,40,30.00,10.0,ESE,8.1,-,N/A,,Clear,120,2013-04-14 16:55:00
1:15 PM,66.2,41.0,40,30.00,10.0,East,10.4,-,N/A,,Clear,100,2013-04-14 17:15:00
1:35 PM,68.0,39.2,35,29.99,10.0,ESE,9.2,-,N/A,,Clear,120,2013-04-14 17:35:00
1:55 PM,68.0,37.4,33,29.99,10.0,SE,8.1,-,N/A,,Clear,130,2013-04-14 17:55:00
2:15 PM,68.0,37.4,33,29.98,10.0,ESE,6.9,-,N/A,,Clear,120,2013-04-14 18:15:00
2:35 PM,69.8,39.2,33,29.98,10.0,ESE,6.9,-,N/A,,Clear,110,2013-04-14 18:35:00
2:55 PM,69.8,37.4,31,29.96,10.0,SE,4.6,-,N/A,,Clear,140,2013-04-14 18:55:00
3:15 PM,71.6,37.4,29,29.95,10.0,SSE,5.8,-,N/A,,Clear,150,2013-04-14 19:15:00
3:35 PM,71.6,39.2,31,29.94,10.0,SE,3.5,-,N/A,,Clear,140,2013-04-14 19:35:00
3:55 PM,71.6,41.0,33,29.93,10.0,SSE,4.6,-,N/A,,Clear,150,2013-04-14 19:55:00
4:15 PM,71.6,37.4,29,29.93,10.0,South,4.6,-,N/A,,Clear,170,2013-04-14 20:15:00
4:35 PM,71.6,35.6,27,29.93,10.0,SSE,3.5,-,N/A,,Clear,160,2013-04-14 20:35:00
4:55 PM,71.6,37.4,29,29.92,10.0,SSE,3.5,-,N/A,,Clear,150,2013-04-14 20:55:00
5:15 PM,73.4,35.6,25,29.92,10.0,Calm,Calm,-,N/A,,Clear,0,2013-04-14 21:15:00
5:35 PM,71.6,37.4,29,29.91,10.0,Calm,Calm,-,N/A,,Clear,0,2013-04-14 21:35:00
5:55 PM,71.6,41.0,33,29.91,10.0,Calm,Calm,-,N/A,,Clear,0,2013-04-14 21:55:00
6:15 PM,71.6,41.0,33,29.90,10.0,ENE,3.5,-,N/A,,Clear,70,2013-04-14 22:15:00
6:35 PM,69.8,42.8,38,29.91,10.0,ENE,4.6,-,N/A,,Clear,70,2013-04-14 22:35:00
6:55 PM,69.8,44.6,40,29.91,10.0,Calm,Calm,-,N/A,,Clear,0,2013-04-14 22:55:00
7:15 PM,69.8,42.8,38,29.91,10.0,Calm,Calm,-,N/A,,Clear,0,2013-04-14 23:15:00
7:35 PM,66.2,46.4,49,29.91,10.0,Calm,Calm,-,N/A,,Clear,0,2013-04-14 23:35:00
7:55 PM,64.4,46.4,52,29.92,10.0,Calm,Calm,-,N/A,,Clear,0,2013-04-14 23:55:00
8:15 PM,64.4,46.4,52,29.92,10.0,Calm,Calm,-,N/A,,Scattered Clouds,0,2013-04-15 00:15:00
8:35 PM,68.0,41.0,37,29.93,10.0,WSW,3.5,-,N/A,,Overcast,250,2013-04-15 00:35:00
8:55 PM,66.2,42.8,43,29.95,10.0,WSW,11.5,-,N/A,,Overcast,240,2013-04-15 00:55:00
9:15 PM,66.2,42.8,43,29.97,10.0,WSW,8.1,20.7,N/A,Rain,Light Rain,240,2013-04-15 01:15:00
9:35 PM,62.6,44.6,52,29.98,10.0,SW,8.1,-,N/A,Rain,Light Rain,230,2013-04-15 01:35:00
9:55 PM,60.8,46.4,59,29.98,10.0,WSW,9.2,-,N/A,,Overcast,240,2013-04-15 01:55:00
10:15 PM,60.8,46.4,59,29.98,10.0,WSW,5.8,-,N/A,,Overcast,240,2013-04-15 02:15:00
10:35 PM,60.8,46.4,59,29.98,10.0,SW,8.1,-,N/A,,Overcast,220,2013-04-15 02:35:00
10:55 PM,60.8,46.4,59,29.98,10.0,SSW,5.8,-,N/A,,Overcast,210,2013-04-15 02:55:00
11:15 PM,60.8,46.4,59,29.97,10.0,South,5.8,-,N/A,,Overcast,190,2013-04-15 03:15:00
11:35 PM,60.8,46.4,59,29.97,10.0,SW,4.6,-,N/A,,Overcast,220,2013-04-15 03:35:00
11:55 PM,59.0,46.4,63,29.97,10.0,SSW,5.8,-,N/A,,Overcast,210,2013-04-15 03:55:00